Regional Weather Roundup
Issued by NWS Kansas City/Pleasant Hill, MO

Home | Current Version | Previous Version | Text Only | Print | Product List | Glossary On
Versions: 1 2 3 4 5 6 7 8 9 10 11 12 13 14 15 16 17 18 19 20 21 22 23 24 25
000
ASUS43 KEAX 180310
RWREAX

WEATHER ROUNDUP FOR EASTERN KANSAS AND NORTHWEST MISSOURI
NATIONAL WEATHER SERVICE KANSAS CITY/PLEASANT HILL MO
900 PM CST SAT FEB 17 2018

KSZ040-057-103>105-MOZ028-029-037-043-180400-
...KANSAS CITY METROPOLITAN AREA...

CITY           SKY/WX    TMP DP  RH WIND       PRES   REMARKS
K.C. INTL      CLEAR     41  19  41 SE3       30.17S
K.C. DOWNTOWN  CLEAR     38  24  57 CALM      30.17S
LEES SUMMIT    CLEAR     45  19  35 E6        30.17S
OLATHE - IXD   CLEAR     34  20  56 CALM      30.18R
OLATHE - OJC   CLEAR     44  19  36 NE3       30.17S
LAWRENCE       CLEAR     26  20  77 N5        30.16F WCI  20

$$

MOZ001>008-011>017-020>025-030>033-038>040-044>046-053-054-180400-
...NORTHERN AND CENTRAL MISSOURI...

CITY           SKY/WX    TMP DP  RH WIND       PRES   REMARKS
ST. JOSEPH     CLEAR     30  23  75 SW3       30.19R
MOSBY          CLEAR     30  19  64 CALM      30.19R
WARRENSBURG    CLEAR     32  21  64 SE3       30.19R
WHITEMAN AFB   CLEAR     29  20  67 CALM      30.15R
CLINTON        PTCLDY    34  23  64 S3        30.20R
SEDALIA        CLEAR     40  22  48 CALM      30.20S
WARSAW         NOT AVBL
CHILLICOTHE      N/A     27  19  72 CALM      30.19R
KIRKSVILLE     CLEAR     30  22  72 NW3       30.18R

$$

MOZ041-047>049-056>058-063>065-088>090-097-180400-
...EASTERN AND SOUTHERN MISSOURI...

CITY           SKY/WX    TMP DP  RH WIND       PRES   REMARKS
ST. LOUIS INTL CLEAR     34  32  92 W6        30.22R WCI  29
SPIRIT OF STL  CLEAR     30  29  96 W3        30.22R
COLUMBIA       CLEAR     41  22  46 NW3       30.20R
JEFFERSON CITY CLEAR     35  27  72 SW5       30.22R WCI  31
ROLLA          CLEAR     37  29  72 NW3       30.20R
OSAGE BEACH    CLEAR     33  30  88 CALM      30.22R
SPRINGFIELD    CLEAR     33  31  92 S5        30.20R WCI  29
BRANSON        CLEAR     39  36  87 CALM      30.23R
JOPLIN         CLEAR     40  36  86 S3        30.21R
WEST PLAINS    CLEAR     33  31  92 CALM      30.23R FOG

$$

IAZ060-094-KSZ022-034>040-054-083-096-NEZ052-066-093-180400-
...KANSAS...SOUTHEAST NEBRASKA AND IOWA...

CITY           SKY/WX    TMP DP  RH WIND       PRES   REMARKS
TOPEKA         CLEAR     34  19  54 CALM      30.16S
MANHATTAN      PTCLDY    30  15  53 CALM      30.14F
EMPORIA        CLEAR     31  14  49 S8        30.17S WCI  23
CHANUTE        CLEAR     36  21  54 SE5       30.19R WCI  32
WICHITA        PTCLDY    37  14  38 S5        30.16S WCI  33
OMAHA          CLEAR     29  23  78 SE5       30.14F WCI  24
LINCOLN        CLEAR     30  22  72 CALM      30.13F
FALLS CITY     CLEAR     38  21  50 E3        30.16R
LAMONI         CLEAR     33  23  66 NW5       30.16R WCI  29
DES MOINES     CLEAR     30  24  78 W3        30.16R

$$





USA.gov is the U.S. government's official web portal to all federal, state and local government web resources and services.